Flag for Netherlands Weather past 2 weeks in Apeldoorn, Netherlands

Now
57 °F

Passing clouds.


Feels Like: 57 °F
Forecast: 61 / 81 °F
Wind: 5 mph from Southeast

Location: Deelen

Current Time: Aug 1, 2014 at 4:19:15 AM

Latest Report: Aug 1, 2014 at 3:55 AM


Visibility: N/A

Pressure: 29.89 "Hg

Humidity: 94%

Dew point: 55 °F

Location of ApeldoornLocation

Historic Weather in Apeldoorn — Graph

°F

Apeldoorn temperature yesterday

Maximum temperature yesterday: 75 °F (at 3:55 PM)
Minimum temperature yesterday: 50 °F (at 6:25 AM)
Average temperature yesterday: 64 °F

Past Weeks' High & Low Weather Summary

 TemperatureHumidityPressure
High93 °F (Jul 19, 5:25 PM)100% (Jul 17, 2:25 AM)30.18 "Hg (Jul 17, 2:25 AM)
Low50 °F (Jul 31, 6:25 AM)26% (Jul 19, 2:25 PM)29.74 "Hg (Jul 20, 3:25 AM)
Average70 °F77%29.95 "Hg
* Reported Jul 17 2:25 AM — Aug 1 2:55 AM, Apeldoorn, Weather by CustomWeather, © 2014

Note: Actual official high and low records may vary slightly from our data, if they occured in-between our weather recording intervals... More about our weather records

Advertising

Apeldoorn weather history for previous 24 hours

 ConditionsComfort  
Time TempWeatherWind HumidityBarometerVisibility
2:55 AM
Aug 1
57 °FCool.1 mph94%29.89 "HgN/A
2:25 AM59 °FPassing clouds.2 mph88%29.89 "HgN/A
1:55 AM59 °FPassing clouds.2 mph88%29.89 "HgN/A
1:25 AM59 °FPassing clouds.2 mph94%29.89 "HgN/A
12:55 AM61 °FPassing clouds.3 mph88%29.92 "HgN/A
12:25 AM61 °FPassing clouds.3 mph88%29.92 "HgN/A
11:55 PM
Jul 31
61 °FPassing clouds.2 mph88%29.92 "HgN/A
11:25 PM61 °FCool.2 mph88%29.92 "HgN/A
10:55 PM63 °FMild.1 mph88%29.92 "HgN/A
10:25 PM63 °FMild.2 mph88%29.92 "HgN/A
9:55 PM64 °FMild.1 mph83%29.92 "HgN/A
9:25 PM66 °FPassing clouds.1 mph83%29.92 "HgN/A
8:55 PM68 °FPassing clouds.1 mph73%29.92 "HgN/A
8:25 PM72 °FMild.1 mph69%29.92 "HgN/A
7:55 PM73 °FPassing clouds.3 mph61%29.92 "HgN/A
7:25 PM73 °FPassing clouds.3 mph61%29.92 "HgN/A
6:55 PM75 °FMild.6 mph50%29.92 "HgN/A
6:25 PM75 °FPassing clouds.6 mph54%29.92 "HgN/A
5:55 PM73 °FPassing clouds.7 mph61%29.95 "HgN/A
5:25 PM75 °FScattered clouds.6 mph54%29.95 "HgN/A
4:55 PM73 °FPassing clouds.7 mph57%29.95 "HgN/A
4:25 PM75 °FPassing clouds.6 mph54%29.95 "HgN/A
3:55 PM75 °FScattered clouds.7 mph57%29.95 "HgN/A
3:25 PM73 °FPassing clouds.7 mph53%29.95 "HgN/A
2:55 PM73 °FPassing clouds.8 mph57%29.98 "HgN/A
2:25 PM73 °FOvercast.7 mph57%29.98 "HgN/A
1:55 PM73 °FPartly sunny.9 mph57%29.98 "HgN/A
1:25 PM72 °FMild.7 mph61%29.98 "HgN/A
12:55 PM72 °FMild.8 mph61%29.98 "HgN/A
12:25 PM70 °FPassing clouds.8 mph60%29.98 "HgN/A
11:55 AM70 °FPassing clouds.8 mph64%29.98 "HgN/A
11:25 AM70 °FPassing clouds.8 mph60%30.01 "HgN/A
10:55 AM68 °FPassing clouds.7 mph64%30.01 "HgN/A
10:25 AM68 °FPassing clouds.8 mph69%30.01 "HgN/A
9:55 AM66 °FPassing clouds.7 mph73%30.01 "HgN/A
9:25 AM64 °FMild.6 mph78%29.98 "HgN/A
8:55 AM63 °FPassing clouds.5 mph83%30.01 "HgN/A
8:25 AM59 °FCool.3 mph94%29.98 "HgN/A
7:55 AM57 °FFog.2 mph94%29.98 "Hg4 mi
7:25 AM55 °FPassing clouds.2 mph94%29.98 "HgN/A
6:55 AM54 °FCool.2 mph94%30.01 "HgN/A
6:25 AM50 °FPassing clouds.2 mph94%30.01 "HgN/A
5:55 AM52 °FPassing clouds.2 mph94%29.98 "HgN/A
5:25 AM52 °FPassing clouds.2 mph100%29.98 "HgN/A
4:55 AM52 °FPassing clouds.1 mph100%30.01 "HgN/A
4:25 AM52 °FPassing clouds.2 mph100%30.01 "HgN/A
Weather by CustomWeather, © 2014

See weather overviewHow to use our weather pages